This demonstration page uses our WeatherBlox Daily Observations layout. Learn more.

Left ArrowRight Arrow

40.97296, -117.73568

Hourly Observations for May 28, 2018

Temp ( °F °C ) Dew Point ( °F °C ) Humidity (%) Winds ( mph kmh ) Pressure ( in mb ) Visibility ( mi km ) Precip ( " mm )
12:56 am 00:56 Cloudy 56 13.3 50 10 81 81 Calm 29.97 1015 10 16 0.00 0.00
1:56 am 01:56 Clear 53 11.7 49 9.4 86 86 SE 7 11 29.97 1015 10 16 0.00 0.00
2:56 am 02:56 Mostly Cloudy 54 12.2 49 9.4 83 83 ENE 3 6 29.97 1015 10 16 0.00 0.00
3:56 am 03:56 Clear 51 10.6 48 8.9 89 89 Calm 29.97 1015 10 16 0.00 0.00
4:56 am 04:56 Partly Cloudy 52 11.1 48 8.9 86 86 Calm 29.98 1015 10 16 0.00 0.00
5:56 am 05:56 Partly Cloudy 51 10.6 47 8.3 86 86 Calm 29.99 1016 10 16 0.00 0.00
6:56 am 06:56 Sunny 55 12.8 50 10 83 83 Calm 30.00 1016 10 16 0.00 0.00
7:56 am 07:56 Sunny 62 16.7 49 9.4 62 62 W 5 7 30.00 1016 10 16 0.00 0.00
8:56 am 08:56 Sunny 65 18.3 49 9.4 56 56 ENE 5 7 30.01 1016 10 16 0.00 0.00
9:56 am 09:56 Sunny 68 20 49 9.4 51 51 VRB 3 6 30.01 1016 10 16 0.00 0.00
10:56 am 10:56 Sunny 71 21.7 49 9.4 46 46 N 8 13 30.01 1016 10 16 0.00 0.00
11:56 am 11:56 Sunny 72 22.2 48 8.9 43 43 ENE 12 19 30.01 1016 10 16 0.00 0.00
12:56 pm 12:56 Sunny 72 22.2 48 8.9 43 43 VRB 3 6 30.00 1016 10 16 0.00 0.00
1:56 pm 13:56 Sunny 74 23.3 47 8.3 38 38 SSE 5 7 29.98 1015 10 16 0.00 0.00
3:56 pm 15:56 Mostly Sunny 80 26.7 43 6.1 27 27 N 7 11 29.93 1014 10 16 0.00 0.00
4:56 pm 16:56 Partly Cloudy 80 26.7 42 5.6 26 26 NNW 8 13 29.92 1013 10 16 0.00 0.00
5:56 pm 17:56 Partly Cloudy 79 26.1 42 5.6 27 27 N 5 7 29.91 1013 10 16 0.00 0.00
6:56 pm 18:56 Partly Cloudy 79 26.1 40 4.4 25 25 N 6 9 29.90 1013 10 16 0.00 0.00
7:56 pm 19:56 Mostly Sunny 73 22.8 46 7.8 38 38 N 5 7 29.90 1012 10 16 0.00 0.00
8:56 pm 20:56 Clear 63 17.2 48 8.9 58 58 Calm 29.91 1013 10 16 0.00 0.00
9:56 pm 21:56 Mostly Clear 56 13.3 48 8.9 75 75 Calm 29.94 1014 10 16 0.00 0.00
10:56 pm 22:56 Clear 54 12.2 48 8.9 80 80 SE 7 11 29.94 1014 10 16 0.00 0.00
11:56 pm 23:56 Clear 53 11.7 47 8.3 80 80 Calm 29.93 1014 10 16 0.00 0.00

Powered by AerisWeather